Dewpoint
45 45 45 45 45 45 45 45 45 44 44 43 42 42 42 42 42 41 41 42 41 41 41 41 41 40 40 40 39 39 39 38 38 39 39 39 38 38 38 38 38 38 38 38 38 39 38 38 39 39 40 40 41 42 42 42 43 45 46 47 47 47 48 48 48 48 49 49 50
45 45 45 45 45 45 44 44 44 43 43 42 42 42 42 42 41 41 41 41 41 40 40 40 40 39 39 39 39 39 38 38 38 38 38 38 38 38 38 38 38 38 38 38 38 38 38 38 39 39 39 40 40 41 41 41 42 43 44 45 44 45 46 47 47 47 47 48 48
44 44 44 44 44 44 44 43 43 42 42 42 42 41 41 41 41 41 40 40 40 40 39 39 39 39 39 38 38 38 38 38 38 38 38 38 37 37 37 37 38 38 38 38 37 37 38 38 38 39 39 39 40 40 41 41 42 42 43 42 43 44 45 45 46 46 46 46 47
44 43 43 43 43 43 43 43 42 42 41 41 41 41 41 41 40 40 40 40 39 39 39 39 39 38 38 38 38 38 38 38 38 38 37 37 37 37 37 37 37 37 37 37 37 37 37 38 38 39 39 39 40 40 40 41 41 42 42 42 43 44 44 44 44 45 45 46 47
43 43 42 42 42 42 43 43 42 42 40 40 39 39 39 40 39 39 39 39 38 38 38 39 38 38 38 38 38 38 38 38 38 38 37 36 36 37 37 37 37 37 37 37 37 37 37 38 38 39 39 39 39 40 40 40 41 41 42 42 42 43 43 44 44 45 46 47 47
42 42 42 41 41 41 42 42 42 41 39 38 38 38 38 39 39 39 38 38 38 38 38 38 38 38 37 37 37 37 36 36 36 36 36 36 36 36 36 36 36 36 36 36 36 37 37 37 38 39 39 39 39 39 39 39 40 41 41 42 42 42 43 43 44 45 46 46 47
42 42 41 40 40 40 40 42 42 40 38 37 37 38 38 38 38 38 38 37 37 37 37 37 37 36 36 35 35 35 35 35 34 35 35 35 35 35 35 36 36 36 36 36 36 37 37 37 38 38 39 39 39 39 38 39 40 40 41 41 41 42 42 42 42 43 44 44 45
41 41 40 39 38 38 38 40 41 39 37 35 36 36 37 38 37 37 36 35 35 35 35 35 34 34 33 33 33 33 33 33 32 33 33 33 33 34 34 35 35 35 36 36 36 37 37 37 38 38 38 38 38 38 38 38 39 40 40 40 40 40 40 40 41 41 41 42 42
40 39 38 37 37 36 36 38 39 38 36 34 34 35 35 36 35 34 34 33 33 33 33 32 32 32 31 31 31 30 30 29 29 30 30 31 32 33 33 34 34 35 35 36 36 37 37 37 37 37 37 37 37 37 37 38 38 39 39 38 38 38 38 38 38 38 39 39 39
39 38 36 34 34 33 33 34 35 35 33 32 32 32 33 34 33 32 32 31 31 31 30 29 29 29 29 28 28 27 27 27 27 28 29 29 31 32 33 33 34 34 35 35 36 36 36 36 35 35 35 35 36 36 36 37 38 38 38 37 36 36 35 35 36 36 37 38 38
38 36 34 32 31 31 30 30 31 31 30 29 29 29 29 30 30 29 29 29 29 28 28 27 27 27 26 26 25 25 25 25 25 26 27 28 29 31 31 32 33 33 34 34 35 35 34 34 34 34 34 34 35 35 35 36 36 36 35 35 35 34 33 33 34 34 35 36 37
36 34 32 29 29 28 27 27 28 28 27 27 27 26 27 27 27 27 27 26 26 26 26 26 26 25 25 25 24 24 24 24 24 25 26 27 28 29 30 31 32 32 33 33 33 33 33 32 32 32 33 33 33 34 34 34 34 34 33 33 33 33 32 32 32 33 35 36 37
33 31 29 27 26 25 25 25 25 25 25 25 25 25 24 24 25 25 25 24 24 24 24 25 25 25 24 24 24 24 23 23 24 24 25 27 27 28 29 29 30 30 30 30 30 30 30 30 30 31 31 32 32 33 33 33 33 32 32 31 31 31 31 31 31 33 34 36 37
30 29 27 25 24 24 24 24 24 24 24 24 24 24 24 23 24 24 24 24 23 24 24 24 24 24 24 24 23 23 22 22 23 24 25 26 26 27 27 28 28 28 28 28 28 28 27 28 29 29 30 30 31 31 31 31 31 31 31 30 30 30 30 30 31 33 33 35 35
28 26 24 23 23 22 23 23 23 23 23 24 24 23 23 22 23 24 24 23 23 23 23 23 23 23 23 23 22 22 22 22 23 24 24 25 25 25 26 26 26 26 26 26 25 25 25 25 26 28 28 29 29 29 29 29 29 29 29 29 29 29 29 30 31 32 33 33 34
26 24 23 21 21 21 22 22 22 22 23 23 23 23 22 22 22 23 24 23 22 22 22 22 22 22 22 23 22 22 22 22 22 23 23 24 24 24 25 25 25 24 24 23 23 23 24 24 26 27 27 27 28 27 27 28 28 28 28 29 29 29 29 30 30 31 32 33 33
24 22 21 20 20 20 21 22 22 22 22 23 22 22 22 22 22 22 23 23 22 21 21 21 21 21 21 22 22 22 22 22 22 22 23 23 23 24 24 24 24 23 23 22 21 20 21 23 24 26 26 26 26 26 26 26 26 27 27 28 28 29 29 30 30 31 31 32 33
23 21 20 19 20 20 21 22 22 22 22 22 21 21 21 21 21 21 22 22 21 21 20 20 20 20 20 20 21 22 22 22 22 22 22 22 23 23 23 22 22 22 22 21 20 20 20 21 23 24 25 25 25 25 25 25 25 25 26 26 27 28 29 29 30 30 31 31 32
22 20 19 19 19 20 20 21 21 21 21 21 20 20 21 20 20 20 20 20 21 20 20 19 19 19 20 20 20 21 22 22 22 21 21 21 22 22 21 21 21 21 21 21 20 20 20 21 22 23 24 24 24 24 24 24 25 25 25 26 26 27 28 29 29 30 30 31 32
21 20 19 18 19 19 20 20 20 20 20 20 20 20 20 20 20 19 19 19 20 20 20 19 19 19 19 19 20 20 21 22 21 21 21 21 21 20 20 20 20 20 20 20 20 20 20 21 22 22 23 24 24 24 24 24 25 25 25 26 26 27 28 29 29 29 30 30 31
20 19 18 18 18 19 19 19 20 19 19 19 19 19 19 19 18 18 18 19 19 19 19 19 18 18 19 19 20 20 20 21 21 20 20 20 20 20 20 20 19 19 20 20 20 20 20 21 22 23 23 24 24 24 24 25 25 25 25 26 26 27 28 29 29 29 30 30 31
20 18 18 18 18 19 19 19 19 18 18 18 18 18 18 17 17 17 18 19 19 18 18 18 18 19 19 19 20 20 20 20 20 20 20 20 20 20 19 20 19 18 19 19 20 21 22 23 23 24 24 24 24 24 25 25 25 25 26 26 27 27 28 29 29 30 30 31 32
19 18 17 17 17 19 19 19 18 17 17 17 17 17 17 16 16 16 17 17 17 17 17 17 18 19 19 19 19 19 19 19 19 19 19 19 18 18 18 19 18 18 18 20 21 23 24 24 24 24 24 24 24 25 25 25 25 25 26 26 27 28 29 29 30 30 31 32 33
17 17 17 17 17 17 17 17 17 16 16 16 16 16 16 16 16 15 15 15 15 15 15 16 17 18 19 18 18 18 17 17 17 17 17 17 17 17 17 18 17 18 19 21 24 25 26 26 25 25 25 24 25 25 25 25 25 26 26 27 28 29 29 30 31 32 32 33 34
16 16 16 16 16 16 16 16 16 16 16 16 16 16 16 15 15 15 15 15 15 15 15 15 16 17 18 18 17 17 17 17 17 17 17 16 17 17 17 17 17 19 21 23 26 28 29 29 28 27 25 25 25 25 25 26 26 26 27 27 29 29 30 31 32 33 33 34 35
15 15 15 15 15 15 15 15 15 15 16 16 16 16 15 15 15 15 15 15 15 15 15 15 16 17 19 17 17 16 16 17 17 17 17 17 16 17 17 17 18 20 22 24 27 28 29 30 30 29 28 27 26 26 26 26 26 27 27 28 29 30 31 32 33 33 34 34 35
15 15 15 15 15 15 15 15 15 15 15 15 15 15 15 15 15 15 15 15 15 15 15 16 16 18 19 17 16 15 16 17 17 17 17 17 16 17 17 17 18 19 22 25 27 29 29 31 31 31 30 28 28 27 27 27 27 27 28 29 29 30 31 32 33 33 33 33 34
15 15 15 14 14 14 15 15 15 15 15 15 15 15 15 15 15 15 15 15 15 16 16 16 17 17 17 16 16 16 16 16 17 17 17 17 17 17 17 17 17 19 22 26 28 29 29 30 31 31 31 30 29 28 28 27 27 27 28 29 29 30 30 31 31 31 32 32 32
15 14 14 14 14 14 14 14 15 15 15 15 15 15 15 14 15 15 15 15 16 16 17 17 17 17 17 16 16 16 16 16 17 17 18 17 17 16 16 16 16 19 23 27 28 29 29 30 30 31 31 31 29 28 27 27 26 27 27 28 28 29 29 29 29 29 29 29 30
15 14 14 14 14 14 14 14 15 15 15 15 15 14 14 14 15 15 15 16 16 17 18 18 18 17 16 16 16 16 16 16 17 17 17 16 16 16 16 17 16 19 23 26 27 28 29 29 30 31 31 31 30 29 27 26 26 27 27 27 27 27 27 27 27 27 27 27 28
15 15 14 15 14 14 14 15 15 15 15 15 14 14 14 14 15 15 16 17 17 18 19 19 17 16 16 16 16 16 16 16 17 16 16 15 16 16 16 16 16 18 22 26 27 28 29 29 30 30 31 31 30 28 26 25 25 25 26 26 26 26 26 25 25 25 25 26 27
15 15 15 15 15 15 15 15 15 15 15 14 14 14 14 14 16 17 17 18 18 18 18 18 16 16 16 15 15 15 15 16 16 16 16 16 16 15 15 15 15 17 21 26 27 28 29 29 30 30 31 31 30 28 25 24 24 24 24 24 24 25 25 24 24 24 24 25 26
15 15 15 15 15 15 15 15 15 15 14 14 14 14 14 15 17 17 17 17 18 17 17 17 16 15 15 15 15 15 15 15 15 16 16 16 16 15 15 15 15 18 22 26 27 28 29 29 29 30 30 31 29 27 24 24 23 23 24 24 24 24 24 24 24 24 24 24 25
15 15 15 15 15 15 15 15 15 15 14 14 14 14 15 16 16 16 16 17 18 18 17 17 16 16 15 15 15 15 15 15 15 15 15 15 15 15 15 15 14 18 23 26 27 28 29 29 29 30 30 31 29 26 24 23 22 22 22 22 23 23 23 24 24 24 24 24 24
15 15 15 15 15 15 15 15 15 15 14 14 14 15 16 17 17 17 17 18 18 18 17 16 16 16 16 15 15 15 15 15 14 14 14 14 15 15 15 15 15 19 24 26 27 28 28 29 29 30 30 29 27 24 23 22 21 20 20 20 21 21 22 23 24 24 24 24 24
15 15 15 15 15 15 15 15 15 15 14 14 14 15 16 17 17 17 17 19 18 17 16 16 16 15 15 15 15 15 15 14 14 14 14 14 14 14 14 14 15 19 23 26 27 27 28 29 29 29 29 28 25 23 22 21 20 20 20 20 20 21 21 22 23 23 23 24 24
15 15 15 15 15 15 15 15 15 15 14 14 15 16 16 17 16 16 17 18 17 16 16 15 15 15 15 15 15 15 15 15 14 14 14 15 14 14 13 14 15 18 22 25 26 27 28 29 29 29 28 25 23 22 21 20 20 20 20 20 20 20 21 22 22 22 23 23 24
16 16 16 16 15 15 15 15 15 15 15 15 16 16 16 16 16 16 17 18 16 16 15 15 15 15 15 16 15 15 15 15 15 15 14 14 14 14 14 15 15 17 20 24 26 27 28 29 29 29 28 25 23 22 21 20 20 20 20 20 20 20 21 22 22 23 23 24 27
16 16 16 16 15 15 15 15 15 15 15 16 16 16 16 16 16 17 17 17 16 16 15 15 15 15 16 16 16 15 15 15 15 15 15 13 14 15 17 16 16 17 20 23 25 27 28 28 29 29 28 26 23 22 21 21 20 20 20 20 20 20 21 22 22 23 24 24 29
16 16 16 16 15 15 15 15 15 15 16 16 15 15 15 16 17 17 17 17 16 16 15 15 15 15 16 17 16 15 15 14 14 14 15 14 15 18 19 17 15 16 19 22 25 26 27 28 29 29 28 25 24 22 22 21 21 20 20 20 20 20 21 21 22 23 24 25 29
16 16 16 16 16 15 15 15 15 15 16 16 15 16 17 17 17 16 16 16 16 15 15 15 15 15 16 17 17 16 15 14 14 14 15 15 15 17 18 16 15 15 17 20 24 26 27 28 29 29 29 26 24 23 22 22 21 20 20 20 21 21 21 22 23 24 25 27 29